TimeCST,TemperatureF,Dew PointF,Humidity,Sea Level PressureIn,VisibilityMPH,Wind Direction,Wind SpeedMPH,Gust SpeedMPH,PrecipitationIn,Events,Conditions,WindDirDegrees,DateUTC
12:53 AM,36.0,30.0,79,30.06,10.0,SE,4.6,-,N/A,,Clear,130,2012-11-19 06:53:00
1:53 AM,34.0,28.9,82,30.06,10.0,SE,3.5,-,N/A,,Scattered Clouds,140,2012-11-19 07:53:00
2:53 AM,36.0,30.0,79,30.06,10.0,SE,3.5,-,N/A,,Mostly Cloudy,140,2012-11-19 08:53:00
3:53 AM,41.0,32.0,70,30.04,10.0,SSE,3.5,-,N/A,,Scattered Clouds,160,2012-11-19 09:53:00
4:53 AM,39.9,30.9,70,30.04,10.0,SSE,4.6,-,N/A,,Clear,150,2012-11-19 10:53:00
5:53 AM,39.0,30.9,73,30.06,10.0,Calm,Calm,-,N/A,,Clear,0,2012-11-19 11:53:00
6:53 AM,30.9,28.0,89,30.06,10.0,Calm,Calm,-,N/A,,Partly Cloudy,0,2012-11-19 12:53:00
7:53 AM,28.9,25.0,85,30.07,9.0,Calm,Calm,-,N/A,,Partly Cloudy,0,2012-11-19 13:53:00
8:53 AM,39.0,32.0,76,30.07,10.0,Calm,Calm,-,N/A,,Overcast,0,2012-11-19 14:53:00
9:53 AM,41.0,33.1,73,30.07,10.0,Calm,Calm,-,N/A,,Overcast,0,2012-11-19 15:53:00
10:53 AM,45.0,35.1,68,30.06,10.0,South,3.5,-,N/A,,Overcast,180,2012-11-19 16:53:00
11:53 AM,50.0,34.0,54,30.03,10.0,SSW,8.1,-,N/A,,Overcast,210,2012-11-19 17:53:00
12:53 PM,50.0,34.0,54,30.02,10.0,SSW,4.6,-,N/A,,Overcast,210,2012-11-19 18:53:00
1:53 PM,51.1,35.1,54,30.01,10.0,SSW,4.6,-,N/A,,Overcast,210,2012-11-19 19:53:00
2:53 PM,53.1,35.1,50,30.01,10.0,SSW,4.6,-,N/A,,Clear,210,2012-11-19 20:53:00
3:53 PM,52.0,35.1,53,30.03,10.0,Calm,Calm,-,N/A,,Clear,0,2012-11-19 21:53:00
4:53 PM,42.1,34.0,73,30.04,10.0,Calm,Calm,-,N/A,,Clear,0,2012-11-19 22:53:00
5:53 PM,37.0,32.0,82,30.06,10.0,Calm,Calm,-,N/A,,Clear,0,2012-11-19 23:53:00
6:53 PM,34.0,30.0,85,30.08,10.0,Calm,Calm,-,N/A,,Clear,0,2012-11-20 00:53:00
7:53 PM,37.9,33.1,83,30.08,10.0,NW,8.1,-,N/A,,Clear,320,2012-11-20 01:53:00
8:53 PM,37.0,33.1,86,30.08,10.0,NW,6.9,-,N/A,,Clear,310,2012-11-20 02:53:00
9:53 PM,35.1,32.0,89,30.10,10.0,NNW,6.9,-,N/A,,Clear,340,2012-11-20 03:53:00
10:53 PM,33.1,28.9,85,30.10,10.0,NNW,4.6,-,N/A,,Clear,330,2012-11-20 04:53:00
11:53 PM,30.9,28.0,89,30.11,10.0,NNW,5.8,-,N/A,,Clear,340,2012-11-20 05:53:00